Frenchville, ME

12:32 AM EDT on April 28, 2017 (GMT -0400)
Northern Aroostook Regional

Weather History for KFVE - November, 2013

Change the Weather History Date:

Friday, November 8, 2013

  Actual Average Record
Temperature  
Mean Temperature 33 °F 33 °F  
Max Temperature 38 °F 40 °F 63 °F (1996)
Min Temperature 28 °F 27 °F 5 °F (2002)
Degree Days  
Heating Degree Days 32    
Month to date heating degree days 229  
Since 1 July heating degree days 1300  
Cooling Degree Days 0    
Month to date cooling degree days 0  
Year to date cooling degree days 139  
Moisture  
Dew Point 22 °F    
Average Humidity 68    
Maximum Humidity 82    
Minimum Humidity 52    
Precipitation  
Precipitation T in 0.10 in 0.39 in (2010)
Month to date precipitation 0.31 0.74  
Year to date precipitation 30.74 28.86  
Sea Level Pressure  
Sea Level Pressure 29.64 in    
Wind  
Wind Speed 10 mph (West)    
Max Wind Speed 26 mph    
Max Gust Speed 32 mph    
Visibility 9 miles    
Events Snow    
T = Trace of Precipitation, MM = Missing Value Source: NWS Daily Summary

Daily Weather History Graph

Daily Weather History Graph

Search for Another Location

Airport or City:

Trip Planner

Search our weather history database for the weather conditions in past years. The results will help you decide how hot, cold, wet, or windy it might be!

Date:

Astronomy

Nov. 08, 2013 Rise Set
Actual Time 6:27 AM EST 4:06 PM EST
Civil Twilight 5:54 AM EST 4:38 PM EST
Nautical Twilight 5:17 AM EST 5:15 PM EST
Astronomical Twilight 4:42 AM EST 5:51 PM EST
Moon 11:20 AM EST (11/8) 9:23 PM EST (11/8)
Length of Visible Light 10h 44m
Length of Day
9h 38m
Waxing Crescent, 33% of the Moon is Illuminated
Nov 8
Waxing Crescent
Nov 10
First Quarter
Nov 17
Full
Nov 25
Last Quarter
Dec 2
New

Hourly Weather History & Observations

Time (EST) Temp. Windchill Dew Point Humidity Pressure Visibility Wind Dir Wind Speed Gust Speed Precip Events Conditions
12:53 AM 30.9 °F 24.3 °F 19.9 °F 64% 29.60 in 10.0 mi West 6.9 mph - N/A   Overcast
1:53 AM 30.0 °F 23.2 °F 19.9 °F 66% 29.61 in 10.0 mi West 6.9 mph - N/A   Scattered Clouds
2:53 AM 30.0 °F 25.2 °F 19.9 °F 66% 29.61 in 10.0 mi SW 4.6 mph - N/A   Clear
3:53 AM 30.0 °F 22.4 °F 19.9 °F 66% 29.62 in 10.0 mi West 8.1 mph - N/A   Mostly Cloudy
4:53 AM 30.0 °F 22.4 °F 21.0 °F 69% 29.62 in 10.0 mi West 8.1 mph - N/A   Overcast
5:53 AM 28.0 °F 20.8 °F 21.0 °F 75% 29.61 in 10.0 mi WSW 6.9 mph - N/A   Partly Cloudy
6:53 AM 30.0 °F 22.4 °F 23.0 °F 75% 29.62 in 10.0 mi WSW 8.1 mph - N/A   Clear
7:53 AM 32.0 °F 24.8 °F 24.1 °F 73% 29.63 in 10.0 mi West 8.1 mph - N/A   Overcast
8:53 AM 34.0 °F 26.0 °F 24.1 °F 67% 29.62 in 10.0 mi West 10.4 mph 17.3 mph N/A   Partly Cloudy
9:53 AM 37.0 °F 28.9 °F 23.0 °F 57% 29.62 in 10.0 mi West 12.7 mph - N/A   Mostly Cloudy
10:53 AM 36.0 °F 25.3 °F 21.0 °F 55% 29.62 in 10.0 mi West 19.6 mph - N/A   Overcast
11:53 AM 36.0 °F 26.0 °F 19.9 °F 52% 29.62 in 10.0 mi West 17.3 mph 23.0 mph N/A   Overcast
12:53 PM 36.0 °F 26.7 °F 19.9 °F 52% 29.62 in 10.0 mi West 15.0 mph - N/A   Overcast
1:53 PM 36.0 °F 28.5 °F 21.0 °F 55% 29.62 in 10.0 mi West 10.4 mph 16.1 mph N/A   Overcast
2:53 PM 35.1 °F 26.4 °F 21.9 °F 59% 29.63 in 10.0 mi NW 12.7 mph - 0.00 in   Overcast
3:53 PM 35.1 °F 28.6 °F 21.0 °F 57% 29.63 in 10.0 mi West 8.1 mph 18.4 mph N/A   Overcast
4:53 PM 33.1 °F 24.9 °F 23.0 °F 66% 29.66 in 10.0 mi West 10.4 mph - N/A   Overcast
5:53 PM 30.9 °F 22.2 °F 25.0 °F 79% 29.68 in 3.0 mi WNW 10.4 mph - 0.00 in Snow Light Snow
6:53 PM 30.0 °F 22.4 °F 24.1 °F 79% 29.68 in 10.0 mi WSW 8.1 mph - 0.00 in   Overcast
7:53 PM 30.9 °F 20.7 °F 21.9 °F 69% 29.68 in 10.0 mi West 13.8 mph - N/A   Scattered Clouds
8:53 PM 30.9 °F 21.2 °F 21.9 °F 69% 29.68 in 10.0 mi West 12.7 mph - N/A   Overcast
9:53 PM 30.0 °F 21.1 °F 24.1 °F 79% 29.69 in 10.0 mi West 10.4 mph - N/A   Overcast
10:42 PM 30.2 °F 22.6 °F 24.8 °F 80% 29.66 in 2.5 mi West 8.1 mph - 0.00 in Snow Light Snow
10:53 PM 30.0 °F 22.4 °F 25.0 °F 82% 29.69 in 4.0 mi West 8.1 mph - 0.00 in Snow Light Snow
11:06 PM 30.2 °F 19.3 °F 24.8 °F 80% 29.66 in 9.0 mi West 15.0 mph 18.4 mph 0.00 in Snow Light Snow
11:53 PM 30.9 °F 20.7 °F 23.0 °F 72% 29.70 in 10.0 mi WNW 13.8 mph 28.8 mph 0.00 in   Overcast